Location: Navajo
(48.7922°N, 105.0603°W)
Time: 21:33:38
(UTC+00:00)

AO-73 - Visible Passes

Search period start: 28 June 2022 00:00
Search period end: 08 July 2022 00:00
Orbit: 579 x 658 km, 97.6° (Epoch: 28 June)

Date Brightness Start Highest point End Pass type
(mag) Time Alt. Az. Time Alt. Az. Time Alt. Az.
28 Jun ? 09:39:59 10° ENE 09:40:53 11° E 09:41:48 10° E visible
29 Jun ? 09:55:11 10° NE 09:57:52 16° E 10:00:34 10° SE visible
30 Jun ? 10:11:18 10° NE 10:14:48 22° E 10:18:19 10° SE visible
04 Jul ? 09:43:36 10° ENE 09:45:24 12° E 09:47:13 10° ESE visible
05 Jul ? 09:59:19 10° NE 10:02:21 18° E 10:05:24 10° SE visible
06 Jul ? 10:15:32 10° NE 10:19:16 25° E 10:23:00 10° SSE visible
